Location: Burnt Store Colony Mobile Home Park
(26.8013°N, 82.0326°W)
Time: 00:00:36
(UTC+00:00)

Daily predictions for brighter satellites

Satellite Brightness Start Highest point End
(mag) Time Altitude Azimuth Time Altitude Azimuth Time Altitude Azimuth
Cosmos 1680 Rocket 3.8 00:00:57 10° N 00:05:59 46° ENE 00:11:00 10° SE
MOS 1 Rocket 3.5 00:03:43 10° NNE 00:07:47 39° E 00:11:46 10° SSE
Cosmos 1975 Rocket 4.0 00:04:59 10° NNE 00:08:34 25° E 00:12:09 10° SE
Cosmos 1674 Rocket 4.3 00:04:22 10° NNW 00:08:44 58° W 00:13:05 10° S
USA 234 3.4 00:04:05 10° NE 00:10:29 56° SE 00:16:52 10° SSW
Sich 1 Rocket 3.8 00:09:18 10° SSE 00:13:32 46° E 00:17:50 10° NNE
ISS -1.3 00:11:40 10° W 00:14:22 22° NW 00:17:05 10° NNE
H-2A R/B 2.5 00:13:07 10° SE 00:17:32 34° ENE 00:22:00 10° N
Iridium 4 Rocket 3.7 00:16:38 10° S 00:21:13 68° W 00:26:16 10° N
ARGOS 4.0 00:16:49 10° SE 00:21:21 29° ENE 00:25:55 10° NNE
Cosmos 1174 4.2 00:18:54 10° S 00:22:55 52° ESE 00:28:00 10° NE
Cosmos 158 Rocket 3.9 00:19:37 10° NNW 00:24:50 85° ENE 00:29:52 10° SSE
Fermi 3.8 00:21:20 10° W 00:25:24 72° S 00:27:46 24° ESE
GPS 2-04 Rocket1 3.0 00:25:06 10° WNW 00:29:15 64° SSW 00:31:48 22° SE
Chunghua 1 4.4 00:27:30 10° WNW 00:31:11 72° NNE 00:32:48 31° ESE
Cosmos 1437 2.6 00:28:37 10° N 00:31:31 49° E 00:32:46 28° SE
Okean 2 Rocket 3.3 00:28:59 10° SSE 00:33:19 48° E 00:37:39 10° NNE
Cosmos 1844 4.3 00:28:27 10° SSE 00:33:30 33° ESE 00:38:31 10° NE
Milstar 3 Cent rocket 2.6 00:26:26 10° WSW 00:34:20 59° SSE 00:37:15 25° E
CZ-2C R/B 3.1 00:30:01 10° NNE 00:35:15 40° E 00:40:28 10° SSE
Okean-O 3.9 00:32:53 10° S 00:37:04 43° W 00:41:17 10° NNW
ATLAS 2AS CENTAUR R/B 3.8 00:31:15 10° SSE 00:37:17 25° ESE 00:40:32 19° ENE
Cosmos 2263 Rocket 4.4 00:33:08 10° WSW 00:37:44 26° WNW 00:42:22 10° N
SL-16 R/B 4.3 00:33:07 10° NW 00:37:51 28° WSW 00:42:34 10° SSW
HJ-1C 3.2 00:36:39 19° SSE 00:38:53 67° ENE 00:42:09 10° N
SJ-11-01 4.2 00:34:27 10° SSE 00:39:09 69° ENE 00:43:50 10° N
Delta 168 3.9 00:36:25 10° W 00:40:04 29° SSW 00:41:24 22° SSE
CZ-2C R/B 3.0 00:37:02 10° SSE 00:42:04 88° WSW 00:47:25 10° NNW
Cosmos 1900 4.4 00:37:25 10° NNW 00:42:36 89° WSW 00:46:57 14° SSE
GOES 2 Rocket 2.9 00:39:30 10° WSW 00:43:39 74° SSE 00:45:16 37° E
Cosmos 1844 Rocket 2.7 00:39:19 10° S 00:44:43 55° ESE 00:50:09 10° NNE
Cosmos 1300 Rocket 3.4 00:41:03 10° S 00:45:22 68° E 00:49:45 10° NNE
Cosmos 2285 Rocket 4.4 00:43:07 10° SSE 00:48:48 37° E 00:54:31 10° NE
Cosmos 1513 Rocket 4.4 00:43:58 10° S 00:50:19 86° E 00:56:34 10° N
Ariane Rocket 3.7 00:50:37 32° ENE 00:50:37 32° ENE 00:55:01 10° N
YAOGAN 1 3.9 00:46:59 10° S 00:51:02 40° W 00:55:07 10° NNW
SEDSat Delta rocket 3.5 00:47:34 10° WNW 00:52:41 59° SSW 00:54:18 37° SE
Exosat Rocket 3.9 00:50:29 10° S 00:57:12 56° ESE 01:02:24 10° NNE
Cosmos 1464 Rocket 3.9 00:52:34 10° S 00:58:41 84° W 01:04:49 10° N
Meteor 1-15 Rocket 4.3 00:54:41 10° SSE 00:59:59 47° E 01:05:21 10° NNE
Cosmos 2298 Rocket 4.1 00:54:41 10° SSW 01:00:00 82° WNW 01:05:21 10° NNE
Meteor 1-12 Rocket 4.5 00:54:48 10° S 01:00:46 76° W 01:06:40 10° N
Cosmos 1943 3.1 00:58:08 10° NNW 01:03:48 86° ENE 01:06:43 30° SSE
CZ-4 R/B 4.2 01:05:51 10° SW 01:08:48 19° W 01:11:47 10° NW
Cosmos 2151 Rocket 3.7 01:10:10 10° S 01:14:34 73° W 01:19:00 10° N
Cosmos 1867 4.3 01:17:20 10° N 01:21:23 38° NNE 01:21:23 38° NNE
CZ-2C R/B 3.3 01:20:20 10° NW 01:22:04 18° NNW 01:22:04 18° NNW
Cosmos 1603 4.4 01:18:01 10° NNW 01:23:27 50° WSW 01:26:55 21° S
Cosmos 1025 Rocket 4.1 01:21:14 10° N 01:23:50 35° N 01:23:50 35° N
Cosmos 1125 Rocket 4.1 01:35:01 10° SSW 01:40:11 55° WNW 01:45:23 10° N
H-2A R/B 4.5 01:53:49 10° SW 01:56:58 17° W 02:00:08 10° NW
Nadezhda 4 Rocket 4.5 01:57:43 10° NNW 02:03:08 55° WNW 02:03:08 55° WNW
ATLAS 2AS CENTAUR R/B 3.5 02:20:09 10° SW 02:27:46 55° WNW 02:35:34 10° NNE
CENTAUR R/B 4.3 02:42:43 10° NNW 02:47:17 36° N 02:47:17 36° N
H-2A R/B 3.8 08:55:52 10° SE 08:59:39 32° ENE 09:03:32 10° N
Cosmos 2360 Rocket 4.5 09:06:07 10° SSE 09:10:15 21° E 09:14:21 10° NE
BREEZE-M DEB (TANK) 4.5 09:13:55 43° WNW 09:15:22 47° NW 09:20:00 10° NNE
SL-4 R/B 2.7 09:19:51 57° NNE 09:19:51 57° NNE 09:23:39 10° NE
Cosmos 1980 Rocket 3.9 09:22:31 19° NNW 09:22:31 19° NNW 09:24:42 10° N
CZ-2C R/B 2.5 09:16:31 10° NNE 09:21:41 82° ESE 09:23:03 50° S
Cosmos 1339 Rocket 4.4 09:22:54 60° WSW 09:23:33 63° W 09:29:45 10° N
Cosmos 468 Rocket 3.9 09:24:08 57° S 09:25:15 87° ESE 09:30:34 10° NNE
Cosmos 2322 Rocket 2.5 09:22:33 29° S 09:25:29 65° ESE 09:31:06 10° NNE
Landsat 5 3.8 09:21:02 10° SSE 09:25:30 74° ENE 09:30:00 10° N
Cosmos 1500 4.0 09:22:13 10° N 09:25:56 49° E 09:29:37 10° SSE
PAYLOAD A 3.8 09:22:38 10° N 09:26:52 67° NW 09:26:52 67° NW
Meteor 1-10 Rocket 4.1 09:25:24 40° SSW 09:27:33 84° W 09:33:22 10° N
SL-16 R/B 2.0 09:31:25 44° SSW 09:33:18 83° WNW 09:38:59 10° NNE
Cosmos 2263 Rocket 3.7 09:33:27 10° N 09:38:40 37° ENE 09:43:53 10° SE
Chandra Rocket (1) 3.7 09:31:38 26° W 09:41:02 80° SSW 09:46:07 10° ESE
FUSE 4.4 09:40:52 41° SW 09:41:29 43° SSW 09:46:33 10° SE
SL-19 R/B 4.4 09:37:25 10° NNE 09:41:54 85° ESE 09:43:23 38° S
Meteor 1-14 Rocket 4.3 09:38:56 10° NNW 09:44:17 50° W 09:49:35 10° SSW
CSL-04 DEB 4.4 09:42:38 10° S 09:46:48 61° WSW 09:51:03 10° NNW
Cosmos 1707 Rocket 3.3 09:49:39 20° SSW 09:52:38 75° W 09:56:57 10° N
deb Chang Zheng 4 3.4 09:48:35 10° NNE 09:52:52 90° W 09:57:04 10° SSW
Cosmos 1238 Rocket 4.2 09:47:34 10° NNW 09:53:29 40° W 09:58:46 10° SSW
GPS 2-15 Rocket1 4.0 09:57:49 28° SW 09:59:15 34° S 10:03:28 10° ESE
IRIDIUM 104 4.3 09:54:16 10° N 09:59:24 61° W 10:04:31 10° SSW
Meteor 1-5 Rocket 4.0 09:56:22 10° NNW 10:01:41 69° W 10:07:06 10° S
Yuri Rocket 4.2 10:01:36 22° SW 10:04:16 42° SSE 10:09:46 10° E
Meteor 1-4 Rocket 4.3 10:09:30 16° NW 10:09:30 16° NW 10:10:42 10° NNW
IRIDIUM 114 4.5 10:03:31 10° NNW 10:08:31 48° W 10:13:29 10° SSW
Cosmos 2333 Rocket 4.4 10:05:12 10° SSE 10:09:57 27° ESE 10:14:44 10° NE
GPS 2-18 Rocket1 4.1 10:10:36 24° SW 10:12:15 34° S 10:15:52 10° ESE
USA 32 3.9 10:07:45 10° N 10:13:00 78° W 10:18:14 10° S
Skynet4D Del rocket 3.7 10:09:50 23° W 10:13:31 90° WNW 10:19:54 10° E
ADEOS 3.7 10:11:08 10° N 10:16:10 51° WNW 10:21:11 10° SSW
ADEOS Rocket 3.3 10:09:10 10° S 10:16:28 76° WSW 10:23:03 10° NNW
Cosmos 2173 Rocket 4.4 10:12:12 10° N 10:18:30 70° E 10:24:51 10° SSE
USA 234 3.2 10:12:01 10° SE 10:18:32 83° SW 10:25:06 10° NW
Cosmos 1536 3.0 10:15:32 10° N 10:19:37 77° E 10:23:39 10° S
DELTA 4 R/B 3.3 10:09:17 16° W 10:21:26 68° SSW 10:25:22 10° ESE
Cosmos 1733 Rocket 3.8 10:17:12 10° N 10:21:27 56° E 10:25:41 10° SSE
Cosmos 1484 Rocket 3.1 10:18:53 10° N 10:22:44 48° WNW 10:26:35 10° SSW
Cosmos 1814 Rocket 3.9 10:21:18 10° SSW 10:26:25 72° WNW 10:31:38 10° N
Cosmos 1869 Rocket 4.3 10:22:44 10° NNW 10:26:27 28° W 10:30:09 10° SSW
Cosmos 1862 Rocket 3.5 10:22:05 10° SSW 10:26:28 65° W 10:30:48 10° N
ALOS 2.4 10:21:59 10° N 10:26:30 52° WNW 10:31:01 10° SSW
ERS-2 2.9 10:23:32 10° SSW 10:26:42 28° W 10:29:54 10° NW
Cosmos 1437 Rocket 3.0 10:24:23 10° S 10:28:07 70° E 10:31:53 10° NNE
Meteor 1-11 Rocket 3.7 10:23:06 10° NNW 10:28:45 62° W 10:34:15 10° S
Cosmos 1937 Rocket 4.3 10:25:13 10° N 10:30:15 55° ENE 10:35:15 10° SSE
Cosmos 841 Rocket 3.7 10:26:40 10° SW 10:31:38 47° WNW 10:36:40 10° N
Meteor 1-27 Rocket 4.4 10:26:26 10° SW 10:31:46 35° W 10:37:09 10° NNW
Meteor 1-31 Rocket 3.1 10:29:56 10° N 10:33:32 41° WNW 10:37:10 10° SSW
H-2A R/B 3.6 10:33:16 10° SW 10:35:37 14° W 10:37:59 10° WNW
SJ 16-02 1.9 10:37:42 10° NW 10:41:40 34° W 10:45:38 10° SSW
Meteor PRIRODA 3.5 10:39:24 10° N 10:43:02 74° WNW 10:46:39 10° SSW
Cosmos 2016 Rocket 4.1 10:42:32 10° N 10:48:39 81° E 10:54:44 10° S
Cosmos 2360 Rocket 2.8 10:48:43 10° SW 10:53:53 36° WNW 10:59:05 10° N
Meteor 2-20 Rocket 4.5 10:48:24 10° SSW 10:54:29 64° W 11:00:35 10° N
PSLV R/B 4.1 10:50:57 10° NNE 10:54:43 70° ESE 10:58:34 10° S
Cosmos 1515 3.6 10:51:37 10° S 10:55:24 78° W 10:59:11 10° N
